Location: ???????
(54.9996°N, 37.9529°E)
Time: 13:46:42
(UTC+00:00)

Cosmos 2056 Rocket - Visible Passes

Search period start: 12 July 2024 00:00
Search period end: 22 July 2024 00:00
Orbit: 740 x 797 km, 74.0° (Epoch: 12 July)

Date Brightness Start Highest point End Pass type
(mag) Time Alt. Az. Time Alt. Az. Time Alt. Az.
12 Jul 5.1 21:39:00 12° SE 21:42:31 23° E 21:46:33 10° NE visible
12 Jul 3.6 23:19:17 13° SSW 23:24:06 75° WNW 23:29:22 10° NNE visible
13 Jul 5.6 21:03:11 10° SE 21:06:04 15° E 21:08:56 10° ENE visible
13 Jul 3.6 22:43:08 17° SSW 22:47:18 75° ESE 22:52:33 10° NNE visible
14 Jul 4.0 22:06:57 19° S 22:10:35 50° ESE 22:15:38 10° NE visible
14 Jul 4.6 23:47:57 10° WSW 23:52:51 37° NW 23:57:43 10° NNE visible
15 Jul 4.5 21:30:44 18° SSE 21:33:57 33° ESE 21:38:37 10° NE visible
15 Jul 4.1 23:11:01 12° SW 23:15:52 52° NW 23:21:00 10° NNE visible
16 Jul 5.0 20:54:31 15° SE 20:57:24 22° E 21:01:24 10° NE visible
16 Jul 3.6 22:34:47 16° SW 22:38:59 76° WNW 22:44:14 10° NNE visible
17 Jul 5.4 00:17:59 10° W 00:21:58 21° NW 00:25:55 10° NNE visible
17 Jul 5.5 20:18:15 10° SE 20:20:58 15° E 20:23:47 10° ENE visible
17 Jul 3.5 21:58:31 20° SSW 22:02:11 75° ESE 22:07:24 10° NNE visible
17 Jul 5.1 23:40:19 10° WSW 23:44:48 28° NW 23:49:16 10° NNE visible
18 Jul 3.9 21:22:14 21° S 21:25:28 50° ESE 21:30:30 10° NE visible
18 Jul 4.6 23:02:51 10° WSW 23:07:44 37° NW 23:12:34 10° NNE visible
19 Jul 4.4 20:45:54 19° SSE 20:48:50 33° ESE 20:53:28 10° NE visible
19 Jul 4.1 22:26:10 13° SW 22:30:45 52° NW 22:35:51 10° NNE visible
20 Jul 5.8 00:10:45 10° WNW 00:14:04 17° NNW 00:17:22 10° N visible
20 Jul 4.9 20:09:34 15° SE 20:12:17 22° E 20:16:14 10° NE visible
20 Jul 3.6 21:49:50 17° SW 21:53:51 76° WNW 21:59:04 10° NNE visible
20 Jul 5.5 23:32:52 10° W 23:36:49 21° NW 23:40:45 10° NNE visible
21 Jul 5.4 19:33:11 10° SE 19:35:50 15° E 19:38:35 10° ENE visible
21 Jul 3.5 21:13:27 21° SSW 21:17:03 75° ESE 21:22:14 10° NNE visible
21 Jul 5.2 22:55:12 10° WSW 22:59:40 28° NW 23:04:06 10° NNE visible
